RH
73 79 87 90 96 96 92 91 92 84 75 87 82 63 53 49 54 55 59 57 47 39 36 38 35 41 49 49 48 51 50 46 60 64 72 90 88 90 94 82 72 73 75 75 74 74 77 75 74 76 74 68 66 67 63 54 41 34 36 38 41 41 42 41 44 52 57 62 66 66 69 71 71 71 72 73 73 75 77 78 80 78 75 75 75 78 79 80 81 80 80 79 81 82 82 81 77
81 90 95 93 95 94 90 86 89 88 81 86 71 54 51 50 63 61 58 61 49 37 35 37 36 37 40 42 39 44 50 52 64 70 77 87 89 94 92 78 66 72 81 78 77 77 77 76 76 75 72 67 67 69 62 47 35 34 38 39 40 38 38 40 45 52 57 62 65 66 68 69 69 70 72 74 73 76 78 78 79 77 75 75 74 77 78 78 79 79 80 80 79 80 80 80 79
90 95 97 97 96 93 89 87 85 83 78 69 50 48 50 43 55 60 52 48 40 35 36 36 40 44 39 38 38 44 52 57 65 71 80 83 85 92 87 79 71 72 78 76 75 77 76 75 74 73 69 66 69 65 51 38 34 37 38 39 39 37 37 40 46 53 59 63 65 66 66 67 67 69 72 73 72 74 76 77 78 76 76 76 76 78 78 77 78 79 80 80 80 80 80 79 79
93 92 93 94 94 93 85 83 81 72 60 48 39 38 37 34 40 44 41 38 37 35 36 37 44 51 42 37 40 47 54 58 65 71 79 81 81 87 85 80 75 71 72 71 72 75 73 70 69 70 68 67 67 54 39 34 35 37 38 39 37 36 37 41 47 53 59 62 64 66 65 65 65 68 71 72 73 75 76 77 78 77 76 76 77 79 79 79 79 78 78 80 80 80 79 76 77
91 89 90 93 91 86 77 77 78 68 51 37 36 33 28 32 33 34 36 37 37 35 36 39 43 48 44 41 40 48 58 56 62 68 75 82 80 84 88 84 79 75 72 68 68 72 69 67 68 66 65 68 60 41 34 34 35 38 38 37 36 36 38 41 46 51 56 60 64 65 64 63 62 64 67 70 71 73 73 73 75 76 76 76 77 78 79 79 79 77 78 80 79 78 78 77 77
87 83 85 90 88 83 77 74 65 50 42 36 31 30 28 28 31 33 36 37 36 36 37 38 40 43 45 47 47 51 57 54 60 68 73 79 81 82 85 86 82 80 80 72 66 66 66 65 66 66 67 68 54 36 33 33 35 38 37 37 36 37 38 41 44 49 55 58 60 61 60 60 59 61 64 66 67 69 69 69 74 75 75 77 78 79 79 79 78 78 78 80 79 78 80 81 79
83 80 82 86 87 85 78 71 57 36 30 34 28 27 28 27 31 32 34 36 36 37 36 39 43 44 47 49 52 55 55 55 60 69 74 77 82 80 78 79 78 82 86 82 77 71 69 68 68 70 71 65 47 35 33 32 36 38 37 38 37 37 39 42 44 47 55 57 55 54 57 58 58 60 65 67 67 67 67 68 70 72 74 76 77 78 79 78 77 78 78 79 79 78 80 81 79
80 80 78 78 75 72 71 60 45 32 25 26 25 26 28 28 31 31 32 34 35 35 36 42 43 47 53 49 51 55 56 60 65 70 74 76 80 79 76 74 75 80 84 88 88 79 73 72 74 75 72 58 39 33 32 32 36 37 37 37 37 37 39 43 42 43 51 53 50 50 55 59 61 65 69 71 72 71 72 72 71 72 74 76 76 76 76 76 77 78 78 77 76 76 77 77 76
75 76 72 74 67 65 70 49 27 25 25 23 25 27 28 29 29 29 30 31 34 34 36 42 44 55 60 51 53 56 59 65 69 72 73 75 76 76 75 73 75 79 85 89 83 75 73 72 75 73 64 49 36 32 30 31 36 38 37 36 37 37 41 43 39 39 44 47 47 48 54 60 64 69 73 74 75 75 77 78 76 73 73 75 73 70 70 72 75 76 75 75 75 75 74 74 73
72 71 68 72 68 68 57 31 23 24 24 23 24 27 28 29 29 27 28 30 33 34 40 45 46 56 58 52 55 58 64 69 70 72 72 74 73 72 73 73 76 78 84 87 75 69 71 71 74 68 54 43 38 35 30 31 36 38 37 36 37 38 42 42 39 40 42 45 46 48 53 59 63 69 74 75 76 74 74 74 73 72 71 72 69 67 67 69 73 75 73 72 73 74 73 72 72
68 64 64 63 61 68 42 19 26 22 22 24 23 27 27 28 28 26 27 29 33 34 41 50 50 52 56 56 57 60 66 68 68 70 70 72 71 68 70 74 80 81 82 83 73 67 68 68 71 64 51 45 41 39 34 30 35 38 36 36 37 39 43 42 41 41 42 45 46 48 51 55 59 66 73 75 76 75 72 68 68 71 71 69 66 66 66 67 72 75 74 71 71 70 68 67 67
63 55 65 63 55 64 36 19 26 20 23 24 23 27 27 28 26 26 26 28 32 32 37 53 59 52 55 57 57 61 64 65 65 69 71 70 68 66 68 73 77 79 82 80 70 65 66 65 67 62 54 51 45 42 37 30 34 38 36 36 38 41 44 43 42 41 43 44 45 48 49 53 56 61 70 74 76 77 76 70 68 69 70 67 63 65 66 67 70 75 77 75 73 69 66 64 64
57 46 58 59 52 51 27 19 23 20 25 22 24 26 27 28 25 26 26 27 30 31 34 49 58 51 54 57 58 62 62 64 64 70 73 68 67 66 68 70 70 74 79 77 67 61 63 66 66 62 58 56 50 44 37 32 34 38 37 37 39 43 45 44 42 43 43 43 46 47 46 50 54 57 65 73 76 77 79 76 71 70 70 67 64 65 66 67 69 74 77 78 77 73 70 68 67
50 43 46 48 49 40 21 20 20 20 25 21 23 25 26 27 25 28 26 28 30 32 35 43 52 54 59 59 59 60 61 65 65 70 72 67 66 66 67 68 70 74 76 77 72 62 64 72 67 61 60 57 54 47 39 33 34 39 38 37 40 43 45 45 44 43 45 45 45 46 47 49 53 57 60 68 76 76 77 78 76 71 68 68 65 64 64 65 68 73 75 76 77 76 74 72 71
47 42 39 46 53 44 25 19 19 20 23 20 22 24 25 25 26 28 27 29 30 33 37 40 46 52 56 55 55 57 62 66 65 69 67 65 67 66 66 65 70 73 75 79 80 74 75 81 72 61 60 57 56 52 44 35 34 41 39 38 41 43 46 47 45 45 48 46 44 48 48 46 50 54 56 64 74 77 76 77 75 70 66 65 63 61 62 63 68 74 75 75 75 74 74 74 73
44 40 43 50 48 48 35 18 18 21 21 20 21 23 23 25 26 27 28 30 30 33 36 38 41 43 45 47 52 56 63 67 66 66 65 66 68 69 68 66 69 70 75 80 82 80 77 83 76 62 60 59 58 53 45 35 35 42 39 39 42 42 46 47 46 46 51 49 47 51 48 51 55 53 57 64 72 77 77 76 73 67 64 62 59 58 59 62 69 74 75 75 76 73 71 70 67
43 39 42 49 47 55 41 18 21 22 20 20 21 24 22 24 26 26 28 29 29 32 33 35 38 38 39 44 51 57 62 66 66 66 67 68 69 71 70 69 73 72 76 80 83 81 76 83 74 63 62 58 62 53 39 36 38 43 42 40 42 43 45 49 47 46 55 55 53 56 56 64 67 60 65 72 72 73 75 75 72 66 62 62 59 56 59 63 66 71 75 76 75 72 70 68 62
44 39 38 51 63 66 40 19 22 20 19 20 21 24 22 23 25 26 27 28 29 32 33 34 38 40 42 46 52 57 61 64 66 67 68 71 69 70 71 70 75 77 78 80 84 83 80 87 78 72 67 59 74 58 36 43 43 46 49 44 46 46 46 50 48 50 61 64 62 65 67 72 76 73 72 76 75 74 74 74 75 68 60 60 58 58 61 64 66 70 73 73 75 75 76 77 70
39 36 34 39 54 55 30 20 22 18 20 20 20 22 23 23 24 27 26 26 27 30 32 33 40 44 46 49 52 59 63 64 65 67 69 72 69 68 73 73 74 77 80 81 84 85 83 90 85 81 68 61 82 66 47 55 47 50 55 50 53 51 50 51 51 59 67 70 71 69 75 81 80 76 70 71 72 71 71 70 76 71 59 57 57 61 64 66 68 70 72 73 77 80 79 77 76
33 33 32 34 49 45 24 23 22 20 21 18 21 22 23 23 23 27 25 25 26 27 29 33 40 44 48 50 53 60 65 63 63 68 71 72 68 66 71 74 76 77 80 84 84 84 86 91 91 86 69 60 79 74 66 66 50 54 62 58 59 54 53 53 55 65 69 76 78 72 81 84 75 72 65 67 72 70 71 71 74 73 61 56 60 66 67 69 71 69 74 75 75 83 86 80 81
30 30 29 39 54 39 20 24 23 21 22 20 21 21 22 23 24 26 25 27 27 26 28 31 39 45 50 51 54 60 64 62 61 65 70 71 68 65 67 72 75 74 77 84 85 85 88 92 93 93 79 65 77 79 79 76 57 63 75 71 70 67 64 63 66 71 71 80 85 80 83 82 78 80 68 66 79 78 80 82 78 80 74 64 71 78 73 74 80 78 77 76 78 87 92 88 88
28 28 25 30 42 36 24 24 25 23 23 22 20 20 22 23 24 25 25 26 24 25 28 30 37 45 50 51 55 59 61 62 61 61 65 69 67 65 66 70 73 72 76 81 85 88 90 93 92 95 85 70 76 80 86 84 66 73 85 80 81 83 81 82 85 83 82 83 83 86 87 83 83 86 75 74 85 82 84 87 77 82 86 77 79 82 78 79 82 80 79 80 83 86 88 87 85
27 26 25 23 30 40 34 26 26 26 24 22 20 21 22 22 23 24 25 24 22 23 27 30 36 44 49 51 55 58 59 61 61 60 62 66 67 65 64 68 72 73 75 78 85 89 90 91 90 94 88 73 76 81 87 85 74 81 86 83 85 86 86 91 90 85 89 83 78 87 88 84 81 82 83 85 90 87 88 87 75 76 85 86 83 83 84 85 79 75 80 84 83 82 83 81 77
26 24 24 23 26 33 32 28 28 26 24 23 22 21 20 21 22 23 24 23 23 25 26 30 37 43 47 51 54 56 58 59 59 60 59 61 65 66 63 65 70 72 76 78 84 88 88 90 88 93 88 73 74 81 87 85 81 84 86 85 84 84 86 89 86 86 92 84 77 84 83 82 80 81 86 88 89 88 85 84 79 77 84 88 86 86 87 87 85 79 83 86 83 84 82 78 76
25 23 21 22 25 25 26 27 27 26 24 23 22 20 18 20 20 21 22 23 24 26 27 30 38 44 46 50 52 54 57 58 57 58 58 59 63 66 64 64 68 71 76 77 81 85 87 88 88 92 84 70 72 80 85 87 84 84 87 87 84 86 87 86 85 87 94 91 83 78 78 84 82 79 84 86 87 88 85 85 86 85 86 84 84 88 86 86 88 82 83 84 83 85 83 83 80
23 22 21 19 21 22 23 25 25 25 23 22 22 20 18 18 19 19 21 23 25 27 28 31 38 42 44 48 50 53 56 57 56 57 57 58 61 65 63 64 68 71 74 75 79 83 84 86 86 89 83 69 72 81 85 87 85 85 87 85 85 87 85 87 87 88 92 94 91 74 68 84 85 78 82 85 89 92 88 88 89 85 82 81 82 87 84 85 88 84 84 87 87 84 82 84 80
22 22 21 18 19 20 22 23 23 23 22 22 21 19 18 17 18 18 19 22 23 26 28 33 38 40 43 46 48 53 55 55 56 56 55 55 58 61 61 63 67 71 74 75 77 81 82 83 84 88 84 70 73 84 85 86 84 85 87 83 85 85 84 90 90 89 88 90 95 75 59 71 82 86 87 88 91 93 90 89 88 85 85 83 82 86 86 87 89 86 80 81 85 84 84 86 82
22 23 22 19 19 19 20 21 22 22 21 21 20 19 18 16 18 17 17 20 22 26 30 35 37 37 41 43 47 52 53 54 55 54 53 54 56 57 60 62 65 70 75 76 76 79 81 81 82 86 86 72 72 83 85 86 84 83 85 81 85 84 83 90 90 90 88 90 93 75 59 59 72 88 89 88 91 93 93 91 84 81 83 85 86 85 80 82 86 83 73 72 80 85 89 89 85
22 21 23 22 20 18 18 19 21 21 20 19 19 19 19 17 17 16 17 20 22 26 31 35 36 37 41 42 46 52 53 53 53 52 51 52 54 55 57 61 64 67 72 76 77 79 79 80 81 84 87 74 70 83 85 84 84 82 83 82 84 80 79 86 88 88 88 92 85 68 62 57 61 74 75 76 86 94 94 91 84 79 83 86 86 77 70 78 86 84 80 80 85 88 89 88 87
21 19 22 22 20 18 16 16 18 19 18 16 17 21 20 15 15 16 18 21 23 26 29 32 34 36 39 41 46 51 53 53 52 52 50 51 53 53 55 58 60 62 68 73 77 79 78 78 79 82 88 77 67 81 86 84 84 82 81 83 83 77 79 84 85 86 87 89 77 60 61 60 57 63 64 65 79 94 92 88 87 83 86 82 75 72 76 85 85 82 84 85 87 87 85 86 89
19 19 21 20 20 17 13 14 15 16 16 15 16 21 19 13 14 16 18 21 22 23 27 29 31 34 37 40 46 50 52 53 53 53 50 51 53 53 54 55 56 58 63 69 74 78 77 76 78 79 87 81 68 78 87 83 82 82 82 85 84 78 80 84 82 84 85 85 78 62 56 59 59 60 64 63 72 90 90 87 88 86 85 80 75 72 77 85 83 81 83 82 85 88 89 88 89
17 21 21 18 17 16 12 11 13 14 15 13 15 19 18 13 14 16 18 20 20 21 24 27 30 33 36 41 46 49 51 53 54 53 51 51 53 53 54 54 55 57 60 65 69 74 75 76 80 79 86 86 71 74 84 80 78 81 83 85 84 77 78 85 83 81 80 82 84 72 57 57 60 59 62 64 67 81 90 88 88 88 79 80 85 74 72 84 84 82 82 84 88 89 91 89 85
15 19 20 16 15 15 13 11 12 12 12 13 14 18 18 14 14 16 17 19 20 20 22 26 29 32 36 43 47 49 50 52 53 53 52 52 53 54 54 54 56 59 61 64 66 70 72 74 80 80 84 89 79 75 77 73 72 73 77 83 82 74 76 85 83 79 78 78 82 79 66 57 58 58 60 65 66 75 91 89 88 89 77 82 91 79 79 87 87 85 82 85 88 88 90 87 80
14 15 15 14 14 14 14 13 11 11 12 13 14 16 16 14 14 16 17 18 19 19 21 25 27 31 39 44 46 49 51 53 52 52 52 52 55 56 56 57 58 61 63 66 67 69 71 72 77 78 79 86 88 86 78 69 66 62 65 76 78 74 77 83 81 78 78 76 78 82 74 59 55 58 59 64 65 71 88 91 92 93 84 86 86 77 81 84 88 92 88 87 84 86 90 82 75
12 13 13 13 13 13 13 13 11 11 12 13 14 16 16 14 13 15 17 18 18 19 20 23 26 32 42 45 45 48 51 52 52 52 53 53 56 59 59 60 61 63 65 69 69 70 73 73 77 78 76 81 87 92 89 81 76 66 64 74 78 75 77 81 80 78 78 75 77 82 73 59 57 59 58 63 63 65 82 92 91 90 90 94 87 80 82 83 85 85 87 88 77 78 86 80 72
9 10 12 13 13 12 12 11 11 11 12 13 14 15 15 14 13 14 16 17 17 18 19 22 25 30 41 45 44 46 49 52 52 52 53 53 57 61 62 62 64 64 67 71 73 74 77 76 78 80 78 80 84 88 90 88 87 81 78 80 80 77 74 81 82 78 79 75 78 83 68 56 61 61 58 62 61 62 78 93 92 86 90 96 90 80 80 86 88 83 82 81 74 78 84 76 64
8 8 10 11 12 12 11 11 10 9 12 13 13 13 13 14 13 13 14 15 16 17 18 21 23 28 38 43 41 43 48 51 52 51 53 54 58 62 64 65 66 67 69 74 78 79 81 80 81 83 81 81 83 86 87 86 87 87 86 82 82 80 77 82 82 77 80 75 78 85 66 54 60 61 59 60 61 62 70 87 96 91 89 90 83 73 76 86 87 84 83 76 77 86 88 74 58
8 8 9 10 10 11 10 11 11 10 12 13 12 12 12 12 12 12 12 15 15 15 17 19 22 26 35 41 40 41 46 49 51 51 52 55 58 63 65 67 68 69 72 78 82 82 84 83 83 85 84 83 83 85 86 85 85 83 81 79 78 77 78 81 78 76 79 76 81 86 65 52 57 58 59 59 62 66 66 75 87 86 85 85 77 68 73 79 76 79 81 78 82 88 87 72 57
9 8 9 9 8 9 10 10 10 10 12 13 12 12 12 11 11 10 11 14 16 16 15 17 21 23 29 37 39 40 45 47 49 50 52 54 58 62 66 69 69 71 74 80 84 84 85 86 85 86 86 85 86 85 84 83 84 82 79 80 77 74 77 80 77 77 80 76 82 84 60 47 56 57 58 60 63 68 66 67 75 79 82 86 81 71 69 73 74 77 81 83 87 89 86 70 58
10 9 9 9 7 9 10 9 10 10 11 13 13 12 12 11 11 10 10 12 13 14 15 15 18 19 22 31 36 40 44 46 49 51 51 52 57 62 66 70 70 71 75 80 82 83 85 85 85 87 85 85 87 87 81 77 82 87 85 84 81 74 75 81 82 79 80 76 79 78 55 43 54 55 56 61 63 68 67 65 72 77 78 80 82 75 70 76 79 77 80 83 83 86 86 70 61
10 9 8 8 7 8 9 8 9 10 10 12 12 14 14 12 12 11 10 11 10 11 14 15 15 17 19 27 34 37 39 44 50 49 48 51 56 61 66 70 71 72 75 78 80 81 83 80 80 84 85 84 86 85 81 79 82 86 86 87 86 80 77 81 85 80 80 79 78 74 56 47 55 53 51 57 63 67 64 64 70 74 69 66 73 75 75 84 89 83 81 80 78 81 80 69 63
10 9 7 7 7 7 7 8 9 10 11 11 12 18 19 13 12 12 10 11 11 10 14 15 15 15 18 24 31 34 35 41 46 46 47 51 55 60 67 70 71 71 73 76 77 78 78 75 74 77 77 80 85 86 84 82 77 74 77 79 77 78 77 81 84 80 79 77 76 75 62 52 53 52 51 51 57 64 60 61 64 66 68 65 68 76 79 87 91 86 81 78 78 79 77 71 67
10 8 6 7 6 6 6 7 9 11 12 10 11 18 20 15 13 12 11 11 12 11 13 15 15 15 17 22 26 32 34 37 42 44 46 49 53 59 66 71 70 69 72 75 76 77 77 73 69 66 67 73 80 82 81 77 69 66 69 63 54 60 72 80 79 74 78 76 72 75 69 61 52 50 58 53 52 62 61 61 62 61 67 70 70 70 75 86 87 82 82 81 79 75 72 72 70
9 6 5 6 5 5 6 6 8 9 10 9 9 13 17 17 14 12 11 12 13 12 12 14 15 15 18 21 25 29 32 34 39 42 44 48 52 56 64 70 70 67 70 74 75 77 76 68 59 53 56 64 67 69 73 74 65 60 65 58 47 54 69 77 71 66 75 77 73 72 70 74 60 47 61 58 48 57 61 60 63 61 62 68 72 66 70 88 90 84 84 79 73 65 64 70 72
8 5 4 5 5 5 4 5 7 7 8 12 10 10 14 15 13 12 11 12 13 13 13 15 16 16 18 21 24 28 32 34 36 40 45 49 51 54 61 68 69 65 67 72 72 74 70 61 53 48 48 51 52 56 66 69 58 54 65 58 43 52 68 78 73 67 73 75 78 76 70 78 69 46 52 56 46 51 59 59 61 63 61 61 65 64 73 88 87 83 82 75 66 57 61 69 70
7 5 5 5 5 5 5 5 6 7 10 14 12 9 12 14 13 13 13 13 13 13 14 17 16 17 20 22 24 27 31 34 34 37 44 49 50 53 58 65 67 63 63 68 71 73 72 61 52 46 42 41 43 47 53 56 51 54 67 56 38 45 60 73 77 75 74 69 73 79 74 78 74 52 48 56 51 46 51 58 59 62 63 61 63 66 76 82 78 78 78 75 69 58 65 76 69
6 6 6 7 8 8 7 6 6 9 13 13 10 8 11 14 14 13 13 12 12 13 15 17 17 18 21 24 25 25 30 35 36 38 44 49 50 52 56 62 65 62 61 67 69 75 75 61 46 40 38 38 39 41 42 44 43 48 56 45 34 39 46 58 70 78 81 67 56 62 63 66 69 60 55 59 55 47 49 54 57 61 62 62 64 66 72 77 79 82 76 73 72 61 63 83 78
6 6 7 10 11 10 10 10 9 12 14 11 8 7 8 13 14 11 11 10 10 12 14 15 17 18 20 24 25 24 29 35 38 40 44 48 50 52 54 59 64 62 61 66 67 73 76 59 40 36 37 37 38 38 39 39 38 40 42 37 34 36 39 43 49 61 75 65 47 46 49 50 54 59 63 64 58 55 55 52 53 60 61 61 64 65 70 76 82 87 79 69 69 62 60 80 86
7 7 8 12 14 14 14 13 12 13 12 9 6 7 8 11 11 9 9 9 9 10 11 13 15 15 17 22 24 22 25 32 37 39 43 47 50 52 53 57 64 63 60 64 66 69 75 62 40 33 32 32 35 37 37 37 36 36 35 34 34 35 36 36 34 41 57 57 47 43 43 42 42 47 59 65 62 65 67 54 48 54 56 56 61 65 68 75 79 83 81 70 62 60 59 72 86
8 8 10 13 14 17 17 15 13 13 10 7 5 7 9 9 8 7 8 8 8 8 9 11 13 11 13 21 23 20 21 28 35 38 40 45 49 52 53 56 63 64 60 62 63 65 72 62 40 30 28 27 30 33 33 33 32 32 32 32 33 33 33 34 32 34 45 51 46 40 39 41 42 39 42 49 55 69 76 61 47 50 53 53 58 63 64 70 76 77 79 71 61 62 62 68 86
9 8 9 12 13 15 16 14 13 13 11 8 7 8 10 9 8 6 6 7 7 7 8 10 11 9 12 20 22 19 18 24 32 38 39 43 48 51 53 56 61 65 62 59 62 66 70 60 38 26 26 26 27 29 29 30 29 29 30 31 32 33 32 33 34 34 39 46 45 41 38 40 47 46 37 35 41 56 67 58 46 49 55 54 55 60 60 64 71 74 77 72 65 71 72 73 86
9 8 8 12 11 11 13 12 10 11 10 9 8 9 8 8 7 6 6 6 6 7 7 9 10 9 12 20 22 17 17 20 27 36 39 41 47 52 53 55 61 65 63 60 61 63 65 58 40 26 24 25 26 27 27 27 28 28 29 30 31 32 33 34 35 36 37 41 42 42 38 34 45 54 47 39 35 40 48 46 40 43 51 54 55 58 58 56 60 69 77 73 65 74 85 86 88
10 9 10 10 8 8 12 13 11 11 13 11 9 9 8 7 7 7 7 7 6 7 7 7 9 10 10 17 22 18 15 18 23 31 38 40 45 52 54 54 59 64 64 61 57 52 50 48 39 28 23 24 25 27 28 28 28 29 29 30 31 31 33 35 35 36 37 38 39 41 40 36 36 45 52 50 41 35 37 39 37 37 43 50 54 55 56 54 52 57 71 74 65 68 84 92 90
9 10 9 7 7 8 10 14 15 15 16 12 9 9 9 10 10 7 8 8 7 7 7 7 9 10 9 12 18 18 14 16 19 26 36 40 44 50 54 54 57 62 64 63 59 51 44 38 32 25 22 23 24 24 26 28 28 30 30 30 30 31 33 34 35 36 36 37 38 37 40 40 34 33 43 53 52 42 36 36 38 37 38 44 51 53 54 56 53 50 61 72 70 68 79 90 87
8 8 7 7 10 11 11 14 16 16 16 13 10 9 9 10 10 8 8 8 7 7 7 7 7 9 8 9 12 15 14 15 16 22 32 39 42 47 52 52 53 58 63 64 64 61 53 41 33 27 21 18 20 22 24 26 27 28 29 29 30 30 32 33 34 36 37 35 35 35 35 36 37 34 34 42 50 50 42 36 36 38 38 39 43 48 52 55 57 53 56 69 76 72 77 89 85
7 7 6 7 9 10 11 13 13 14 15 14 11 10 8 8 8 7 8 8 7 7 8 8 7 6 8 8 8 11 14 14 14 18 28 38 41 44 48 50 50 54 61 63 64 65 61 52 43 36 30 22 20 21 22 23 25 26 27 28 28 29 30 32 33 33 36 33 31 33 33 32 35 37 35 35 39 45 45 40 35 36 40 41 39 42 48 53 57 57 54 63 78 75 74 89 89
7 9 8 8 7 8 9 10 9 11 13 14 12 11 8 6 5 5 7 8 7 7 8 8 7 6 7 8 8 12 15 15 15 17 25 35 39 40 43 46 46 50 57 59 61 63 63 60 52 43 40 34 25 22 20 20 22 23 25 25 25 27 27 29 31 30 31 31 30 31 32 34 36 36 37 36 34 36 42 44 39 36 40 46 43 39 42 50 55 57 55 57 73 79 73 83 91
7 8 8 8 8 8 11 12 10 8 10 11 11 11 9 6 5 6 6 7 7 7 7 7 7 6 7 8 9 11 15 17 19 21 25 31 36 37 38 43 44 45 51 56 57 59 59 61 57 51 49 45 34 24 18 17 20 20 22 23 23 24 25 26 29 30 30 30 30 31 33 36 38 37 37 37 36 36 38 42 43 40 41 47 48 40 38 45 50 53 55 55 64 72 68 73 85
Wind_Speed
6 8 8 8 7 5 5 6 3 2 3 3 3 3 3 6 3 4 6 4 4 7 10 12 12 14 12 11 14 13 12 9 9 6 9 18 25 25 24 28 31 32 31 31 31 30 29 28 28 27 26 25 25 25 24 24 24 23 21 20 19 18 17 17 16 16 15 15 14 14 13 12 12 11 10 10 10 11 10 10 10 9 9 9 9 9 9 9 9 8 7 7 7 7 7 7 7
7 8 7 6 7 6 3 5 2 1 3 1 4 3 4 8 7 5 6 2 3 8 12 13 13 15 16 16 16 14 14 16 18 19 23 29 28 25 27 29 31 32 29 30 30 29 29 29 28 27 26 25 25 24 23 24 24 22 21 20 19 18 17 16 16 15 15 15 14 13 12 12 11 10 9 9 9 9 9 9 9 8 8 8 8 8 9 9 10 9 8 7 7 7 7 7 7
8 9 9 8 7 6 2 2 3 2 2 1 2 4 3 5 10 10 9 8 9 12 13 14 14 13 13 13 14 13 13 18 24 29 30 29 29 28 27 30 31 30 29 30 30 29 30 30 28 27 26 24 24 24 24 24 23 22 21 19 18 18 17 16 15 15 15 14 14 13 12 11 10 10 9 8 8 8 8 8 8 8 8 8 8 8 9 9 9 8 8 7 7 7 7 7 7
10 10 10 9 5 4 2 1 3 4 1 3 4 7 6 6 11 12 12 13 12 13 12 13 13 9 10 12 14 14 14 20 24 28 27 24 29 31 28 29 31 30 29 29 30 30 30 30 29 27 26 24 23 24 24 24 22 21 20 19 18 17 16 15 15 14 14 14 13 12 12 11 10 9 8 8 8 8 8 8 8 8 8 8 8 8 8 9 9 8 8 8 7 7 7 7 8
11 10 10 9 3 1 3 1 3 4 1 4 5 7 8 9 11 12 13 13 12 12 12 12 12 11 12 14 12 13 16 21 22 23 25 24 28 32 30 28 29 29 29 29 30 29 29 29 28 27 26 23 23 24 24 23 22 20 20 19 18 17 16 15 14 13 14 13 13 12 11 10 9 9 8 7 7 7 8 8 7 8 8 8 8 8 8 9 8 8 8 8 8 7 7 7 8
10 10 10 9 5 3 3 3 4 3 5 6 5 8 8 10 11 12 14 13 12 11 11 12 12 13 14 16 16 14 16 19 21 21 24 28 28 30 31 29 27 27 27 28 29 29 29 28 28 26 25 23 23 24 23 23 21 20 19 18 17 16 15 15 14 13 13 12 12 11 11 10 9 9 8 8 8 8 7 7 7 7 7 8 8 8 9 9 8 8 8 9 8 8 8 8 9
9 9 10 8 7 5 4 4 3 1 7 7 6 9 9 11 12 12 13 11 12 10 9 13 15 13 11 12 15 14 14 17 21 22 25 30 29 28 29 29 27 26 26 26 27 28 28 28 27 25 24 23 23 24 23 22 20 19 18 17 16 16 15 14 14 13 13 12 11 11 10 9 9 9 9 9 8 8 8 7 7 7 7 8 8 9 9 9 9 8 9 9 9 9 8 8 9
8 9 9 5 5 3 4 5 2 2 5 8 8 10 10 11 12 10 10 9 10 9 11 14 13 11 10 12 14 14 15 17 20 24 27 30 29 28 26 27 26 26 24 24 26 28 28 27 26 25 24 23 23 23 23 22 20 18 17 16 15 14 14 13 13 13 11 10 10 10 10 9 9 9 8 8 8 8 8 8 8 8 8 8 9 10 10 10 10 9 10 9 9 9 9 9 9
10 9 7 4 4 2 4 4 4 5 6 9 9 10 10 10 10 10 9 8 9 10 13 13 10 9 11 15 16 14 16 18 23 26 28 28 29 27 25 26 26 25 23 23 26 27 27 26 25 24 24 23 23 23 22 21 20 18 16 15 15 14 13 13 13 12 10 9 9 9 9 9 9 9 8 8 8 7 7 7 8 8 8 9 10 10 10 10 10 10 10 10 9 9 9 9 9
10 10 5 3 4 5 5 3 4 6 7 8 9 10 9 9 8 8 9 9 9 11 15 15 13 13 13 15 14 14 18 22 25 26 26 28 27 25 25 26 25 25 23 23 27 27 27 26 25 24 23 23 23 21 21 21 20 18 16 15 14 13 12 12 12 11 10 9 9 8 9 9 9 8 8 8 8 7 7 7 8 8 9 9 9 10 9 9 10 11 10 10 10 9 9 9 9
9 9 7 4 2 6 3 4 4 7 9 8 10 10 9 9 7 8 10 10 9 11 17 16 13 16 16 13 14 15 20 23 25 26 25 27 25 24 24 25 24 24 23 24 26 26 26 25 24 24 23 22 22 20 20 21 20 17 16 15 14 13 12 11 11 10 9 9 8 8 8 9 9 8 8 8 8 8 8 7 8 9 9 9 9 10 9 9 10 10 11 10 10 9 9 9 9
7 6 5 4 3 5 3 5 5 7 9 8 9 9 9 8 8 8 9 10 10 11 14 15 13 15 14 11 14 17 20 22 24 26 26 25 24 24 23 23 25 24 22 23 25 25 26 25 24 24 23 21 21 20 20 20 19 17 16 15 14 12 11 10 10 9 8 8 8 7 7 8 8 7 7 7 7 8 8 8 8 9 9 9 9 9 9 8 9 10 10 10 10 9 9 9 9
9 5 3 4 5 7 3 3 5 6 7 8 9 10 9 7 8 9 9 10 9 9 10 16 19 13 11 13 15 19 21 22 24 26 27 25 23 23 22 22 25 25 22 21 24 26 25 25 24 24 23 21 20 19 19 20 19 17 16 15 13 12 10 9 8 7 6 7 7 6 6 7 7 7 7 6 6 7 7 7 7 8 8 8 9 9 8 8 8 9 9 9 9 8 8 8 8
11 8 5 4 6 8 4 3 5 5 6 9 9 9 9 7 10 9 9 10 7 10 11 16 21 14 12 14 15 19 21 24 25 26 26 24 23 22 22 21 22 23 22 21 23 25 24 23 24 24 23 21 19 19 18 19 20 18 16 15 13 11 10 8 7 5 5 6 6 5 5 6 6 6 6 5 5 5 6 6 6 6 7 8 8 8 8 8 8 8 9 8 8 8 8 7 7
12 11 6 4 5 7 6 2 5 5 7 8 9 8 8 9 10 9 8 9 9 12 13 14 15 11 13 13 14 21 24 26 27 26 26 24 23 22 22 22 21 21 21 21 21 23 23 22 23 24 23 21 19 18 18 20 20 18 17 15 14 11 9 8 5 4 4 5 5 4 4 5 5 5 5 3 3 4 5 4 5 5 6 7 8 8 7 7 7 8 8 9 9 9 9 8 8
11 10 4 4 1 1 9 1 5 4 8 8 8 7 8 10 7 9 9 9 11 10 11 12 9 6 13 16 18 25 27 28 28 26 25 24 24 23 23 22 21 21 20 20 20 21 21 21 23 24 23 21 19 17 18 21 21 19 17 16 14 11 9 8 5 3 4 5 5 4 4 5 5 4 3 3 2 2 3 3 3 4 5 7 7 7 7 6 6 6 7 9 9 9 9 9 9
8 8 3 5 1 1 10 1 4 3 9 8 8 5 6 9 7 9 9 9 12 10 9 11 7 5 11 17 24 29 29 30 28 27 26 25 25 24 23 23 23 23 21 21 21 20 20 20 22 23 23 22 20 18 19 21 21 19 17 16 14 12 10 8 5 3 3 5 5 4 4 4 4 3 2 3 2 2 2 2 2 3 5 6 7 6 6 5 5 6 6 7 8 8 8 9 9
7 5 5 5 3 3 11 4 5 2 9 7 7 6 4 8 8 8 8 10 12 10 10 11 9 9 13 22 29 31 30 30 29 28 27 26 25 25 25 24 25 25 23 22 21 21 21 21 21 22 23 23 21 19 20 20 21 19 16 15 13 12 10 8 5 3 4 5 5 5 6 5 5 4 2 2 2 2 2 2 2 2 3 5 6 5 5 5 5 5 5 6 7 7 7 7 7
9 5 7 2 4 9 11 5 4 3 6 6 8 7 4 7 8 6 6 10 11 10 11 12 12 14 19 27 30 31 31 30 29 28 27 27 25 26 26 24 25 26 24 22 23 22 21 21 21 22 23 23 21 20 19 18 19 18 16 15 13 12 11 8 6 4 5 6 6 7 6 4 5 4 2 1 1 2 2 2 2 1 2 5 5 4 4 4 5 4 4 6 6 7 7 7 6
11 8 8 1 3 14 7 3 2 5 3 4 7 7 6 6 8 5 5 9 9 8 10 12 14 18 23 27 29 31 31 30 29 28 27 26 24 25 25 25 25 25 25 23 23 23 22 22 22 22 23 24 22 20 19 17 18 17 15 14 13 12 11 9 7 7 7 6 7 7 5 4 4 3 2 1 1 2 2 1 2 2 2 4 4 3 4 5 4 4 4 6 6 7 6 6 7
9 9 7 1 6 14 5 4 1 6 4 4 7 7 7 7 8 6 5 7 6 7 10 13 16 20 24 28 29 30 30 30 29 27 27 25 24 24 23 24 23 23 25 23 23 23 22 22 22 22 23 24 22 20 19 17 18 17 15 14 13 12 10 9 8 9 8 8 8 6 4 4 4 2 3 3 1 1 2 1 2 3 3 3 2 2 4 4 3 3 5 5 6 6 3 3 4
8 9 10 4 6 9 3 4 1 3 3 3 4 4 6 9 9 6 5 5 4 6 11 13 18 23 25 29 30 30 30 30 30 28 28 26 25 24 23 23 23 22 23 22 23 23 23 23 22 22 23 25 23 20 19 18 19 17 15 15 13 12 11 10 10 10 9 9 8 6 5 4 5 4 3 4 2 1 2 1 2 3 4 4 1 1 4 3 1 3 6 6 5 4 1 2 2
9 8 10 6 5 9 2 2 1 1 4 2 0 1 4 7 8 8 7 5 6 7 10 14 18 23 25 28 29 29 30 31 31 30 29 27 26 25 24 24 24 24 23 22 23 23 23 23 23 22 23 25 24 21 18 18 18 17 15 15 14 12 11 11 10 9 9 10 9 7 6 5 6 5 4 4 3 3 4 1 1 2 5 5 0 2 3 2 1 4 5 4 3 1 1 2 2
13 8 9 10 11 13 8 4 4 5 6 5 3 2 4 7 7 9 9 7 8 8 10 15 19 22 24 27 28 28 30 30 30 29 29 28 26 25 24 24 24 24 23 23 23 23 24 24 24 23 24 26 25 22 19 17 18 17 15 16 14 13 12 11 10 9 9 10 10 9 8 6 6 6 5 5 4 4 4 1 1 1 4 4 2 2 2 3 2 3 1 1 2 2 2 4 3
16 12 10 11 13 13 10 8 7 9 8 6 5 5 6 6 5 8 10 10 10 9 11 16 20 22 24 25 26 27 27 28 28 28 27 27 26 25 23 23 24 24 24 23 23 23 24 25 25 24 24 26 25 23 20 17 18 17 16 16 15 14 13 11 11 11 10 10 10 11 10 7 6 6 6 5 5 5 3 2 2 2 3 2 3 2 3 1 2 2 1 1 3 3 2 4 3
14 15 15 12 11 12 11 11 11 12 10 8 8 8 8 8 6 5 10 11 11 11 12 18 21 22 24 24 25 26 27 27 27 27 27 26 26 26 24 23 24 24 24 24 23 23 25 25 25 25 25 26 25 22 20 18 18 17 16 16 15 15 14 12 12 11 10 10 10 12 11 9 7 6 6 6 5 5 4 3 3 2 2 0 1 3 2 0 3 3 2 3 3 2 3 3 3
12 15 18 17 14 13 12 13 13 13 12 11 10 9 9 10 8 6 11 13 12 13 14 18 21 22 23 24 25 26 27 27 27 27 26 26 27 27 26 24 24 24 24 24 23 23 24 25 25 25 25 26 25 22 21 19 19 18 17 17 16 15 14 13 12 11 11 10 10 12 12 12 9 6 6 7 6 5 4 4 3 1 2 0 1 3 1 0 2 2 1 1 1 2 3 3 4
13 11 14 17 17 15 14 13 14 14 12 13 14 11 10 9 9 8 12 16 14 15 16 19 20 21 23 23 24 25 26 27 27 27 27 27 27 27 27 25 24 24 24 25 24 23 24 25 25 26 25 26 25 22 21 20 19 19 18 17 16 15 15 14 12 12 11 10 11 13 12 13 11 9 10 9 6 5 5 4 4 4 3 1 1 2 1 1 1 2 2 2 2 3 3 3 4
17 13 10 13 15 15 17 16 16 16 12 14 14 11 11 11 11 10 12 18 16 16 17 19 19 19 22 23 24 25 26 27 27 27 27 27 26 27 27 26 25 24 24 25 24 23 24 25 26 26 25 26 25 23 22 21 19 19 19 17 16 16 16 14 13 12 11 11 14 14 12 13 13 12 12 10 8 6 6 6 4 3 3 2 3 3 1 1 1 2 3 3 3 3 2 3 3
17 15 10 10 12 13 17 18 18 18 14 15 12 7 10 12 15 14 14 17 17 17 17 18 19 19 20 22 23 25 26 28 29 28 28 27 26 27 27 26 26 25 24 25 25 24 24 25 25 26 25 26 26 23 22 22 20 19 19 17 17 16 16 15 14 13 12 13 13 13 12 13 14 13 12 10 9 6 7 7 4 3 3 4 3 2 1 2 2 1 2 2 2 3 2 2 3
13 12 10 10 10 10 16 18 19 17 15 18 14 6 7 10 17 17 15 18 17 17 18 18 19 19 19 21 22 25 27 28 29 29 28 28 27 27 27 27 26 25 24 25 26 25 25 25 25 26 26 26 26 25 23 23 21 20 19 17 17 17 16 15 14 13 13 13 13 13 13 13 13 13 12 11 10 8 7 6 4 5 5 4 3 1 2 1 2 1 2 2 3 2 2 2 3
10 11 10 10 10 10 14 18 19 17 15 19 15 7 6 7 15 19 16 18 18 17 18 18 18 19 20 21 21 23 27 28 29 29 29 29 28 27 28 28 27 26 25 25 26 26 25 26 26 25 26 27 27 27 24 23 23 21 19 18 17 18 17 15 14 13 13 13 12 13 14 14 13 13 12 11 11 9 7 6 6 8 7 4 3 3 2 1 2 1 2 3 2 1 2 2 2
10 11 10 12 13 11 11 13 18 18 15 17 15 9 6 6 11 19 18 17 17 16 18 19 18 20 20 20 19 21 24 27 29 29 29 30 28 28 28 28 28 27 26 26 27 27 26 26 26 25 26 27 26 27 25 23 24 23 21 19 18 19 18 15 14 14 13 13 13 12 13 14 14 14 13 12 12 10 7 7 6 7 6 4 5 4 2 2 2 2 2 2 1 1 2 1 1
10 11 11 13 14 12 11 10 15 18 15 15 16 12 9 7 10 17 18 16 16 15 16 19 18 19 21 20 19 19 22 27 30 31 31 31 29 28 29 28 29 28 27 27 27 28 28 26 26 25 25 26 23 23 24 23 24 23 23 21 19 19 18 15 14 14 14 13 13 13 14 14 14 14 13 12 12 10 8 7 6 7 5 4 6 4 2 2 1 1 2 2 2 1 1 1 2
12 12 11 12 14 14 14 12 13 18 17 15 15 13 12 11 11 15 17 16 15 15 15 17 18 19 22 21 21 21 22 25 30 32 33 32 30 29 29 29 29 29 28 28 28 29 28 26 26 25 25 26 24 21 20 21 21 22 22 22 20 20 19 17 15 14 14 14 13 15 15 14 14 14 14 13 12 11 8 7 8 8 6 5 6 4 2 2 2 2 1 0 1 1 2 2 2
15 15 12 12 13 13 14 13 12 16 17 16 15 14 13 14 13 12 15 16 15 14 15 16 18 19 22 22 23 23 23 24 27 31 33 33 32 31 30 30 30 30 28 29 29 29 29 28 27 26 25 26 26 23 21 21 21 20 21 22 21 20 20 18 17 15 15 15 14 16 17 14 14 15 14 14 12 11 10 8 9 8 7 7 6 4 3 1 3 3 1 0 1 2 2 3 2
16 14 14 15 15 12 12 12 12 13 13 15 17 15 14 15 15 14 16 18 15 14 15 16 18 20 21 23 24 24 22 22 23 27 32 32 32 31 31 30 31 30 29 30 31 31 31 29 28 28 27 27 27 26 24 24 23 21 21 22 20 19 19 19 19 18 16 15 15 16 17 15 16 16 15 14 13 12 11 10 10 9 8 8 6 4 4 3 4 3 1 0 1 2 2 2 3
17 13 12 14 14 13 13 15 14 13 10 12 15 16 16 16 15 16 17 16 15 15 16 16 18 20 22 24 24 23 22 22 24 27 31 32 32 32 31 31 32 33 31 31 33 33 32 31 29 29 28 28 29 27 25 25 24 23 23 22 19 18 19 19 20 19 17 16 17 18 18 16 17 16 15 15 14 13 12 12 11 10 8 8 7 5 5 5 5 3 2 0 1 2 2 2 3
16 11 11 11 11 12 14 17 17 14 8 10 14 15 15 15 15 15 15 15 17 19 18 17 18 17 20 23 21 21 22 24 28 30 32 33 33 33 32 32 33 34 33 32 33 32 32 32 31 30 29 29 30 29 27 26 25 23 22 21 19 18 18 19 18 18 18 17 17 19 19 18 17 17 15 15 14 14 13 13 12 10 8 8 8 7 5 5 5 3 3 2 2 2 2 3 5
14 12 11 11 11 12 11 14 17 15 9 10 15 13 12 13 14 14 15 17 20 22 21 19 19 18 19 21 20 21 25 27 29 31 32 32 32 33 33 32 33 34 34 33 33 33 33 33 32 31 30 30 30 30 29 27 25 24 21 20 19 18 16 17 18 17 18 17 17 19 19 18 18 17 16 15 14 14 14 13 11 10 9 9 10 9 6 5 5 4 4 4 4 4 3 3 5
15 16 13 12 14 15 13 12 15 15 13 13 14 12 10 13 15 14 15 17 19 21 22 20 19 20 20 21 23 25 28 30 31 31 33 33 33 34 33 32 33 34 34 35 36 36 35 35 34 32 31 31 30 29 30 28 26 25 23 21 20 19 16 17 18 18 18 19 19 20 18 18 19 19 17 16 15 14 14 13 12 12 11 10 10 9 6 5 6 6 5 5 5 5 5 4 5
14 19 18 16 16 16 15 14 14 12 12 13 13 11 9 12 16 15 14 16 17 18 20 20 20 19 20 21 25 28 29 30 30 32 34 36 34 33 32 32 33 34 35 36 36 36 36 36 36 34 32 31 30 29 30 29 28 27 26 24 23 22 20 19 20 20 19 20 20 19 19 18 19 19 19 17 15 15 14 13 13 13 11 10 10 9 7 7 8 7 6 5 5 6 7 5 5
11 15 19 21 19 17 16 16 13 9 9 11 14 12 9 11 15 16 16 16 18 18 18 20 20 19 20 21 23 26 28 28 28 30 33 35 35 34 34 34 34 35 35 35 35 35 36 36 37 37 34 32 32 31 30 29 29 27 27 27 27 26 24 22 22 21 19 19 19 18 18 19 19 19 19 19 17 15 14 13 13 13 12 12 10 9 9 8 7 7 6 7 7 7 7 6 6
10 11 16 20 21 20 18 16 13 9 9 11 14 15 11 11 13 16 19 19 19 19 17 17 20 20 20 21 22 24 26 28 28 30 32 34 36 37 37 37 36 35 34 34 35 35 36 36 37 38 37 36 35 34 30 28 30 29 28 29 29 28 25 22 23 22 19 18 17 18 18 19 20 20 20 20 18 16 15 14 14 13 13 12 11 10 9 8 8 8 8 8 7 7 7 7 8
11 11 13 15 18 20 19 15 12 10 10 10 14 16 12 10 10 12 17 19 19 19 17 16 18 20 20 20 22 23 26 28 28 31 34 35 37 38 39 39 37 34 33 34 35 36 37 38 38 38 39 40 39 37 33 31 32 32 29 30 31 29 25 21 21 22 21 19 18 18 19 19 20 19 20 21 19 17 16 15 15 14 13 13 12 10 9 9 10 10 9 8 8 8 8 8 10
12 13 12 10 11 14 16 14 11 11 12 12 15 16 12 9 9 11 14 16 16 16 16 16 18 20 19 19 19 22 25 28 30 33 34 35 37 38 38 37 36 34 33 34 34 34 36 38 38 39 39 41 41 41 39 36 35 33 29 30 33 31 28 23 20 20 22 22 21 21 21 21 21 19 19 21 20 18 17 17 16 15 14 14 12 11 10 10 10 10 9 8 9 9 9 8 10
13 13 10 8 7 8 10 11 10 11 12 15 18 19 15 11 9 11 13 13 14 14 14 16 18 20 20 18 20 23 25 28 30 32 33 34 35 35 35 35 35 35 33 33 33 33 35 37 38 39 39 40 41 42 42 40 39 37 32 32 34 33 31 28 24 22 22 25 25 25 24 23 23 21 20 21 21 20 18 18 17 16 15 14 14 12 12 12 10 9 9 9 9 10 9 8 10
14 12 9 8 8 8 8 9 10 11 12 13 18 20 18 14 10 10 13 16 17 16 15 17 18 20 23 23 24 26 24 26 28 29 30 32 33 33 34 35 36 36 34 33 33 33 35 38 39 39 39 40 41 42 42 42 41 40 38 36 35 34 34 33 31 27 26 27 27 26 26 25 24 23 22 21 22 21 21 19 18 17 16 15 15 13 13 13 12 11 10 11 11 11 11 10 10
14 11 10 9 8 8 9 10 10 12 11 11 15 18 17 15 11 13 14 16 18 17 16 18 20 24 26 26 25 24 23 25 27 29 30 31 33 35 36 36 37 38 37 36 35 34 35 38 40 41 41 40 41 41 42 42 41 41 39 37 36 35 35 34 34 32 30 30 29 27 27 27 26 25 24 23 22 21 22 22 20 19 19 17 16 15 14 13 14 13 12 12 12 12 12 12 11
15 12 11 10 9 9 10 10 10 11 10 12 16 15 14 14 12 16 19 16 16 18 19 23 27 29 28 27 24 23 23 25 27 29 30 31 34 35 36 38 39 40 40 40 39 37 37 40 42 42 42 42 42 42 42 42 42 41 39 38 37 36 36 35 35 34 33 32 31 30 28 28 27 27 27 26 23 21 22 23 21 20 20 19 17 16 15 14 14 14 13 13 13 13 13 12 11
15 13 12 11 9 9 9 9 10 9 9 13 16 13 12 11 9 13 20 19 18 19 21 26 28 27 26 27 24 23 24 25 26 28 30 32 34 35 36 38 39 41 42 41 40 39 39 42 45 45 44 44 43 43 43 43 42 41 40 39 38 38 37 37 36 36 34 33 33 32 30 29 28 27 27 27 25 24 24 24 22 21 20 20 19 17 17 16 16 15 14 14 14 13 13 13 12
13 13 12 12 11 9 7 8 10 9 8 10 12 10 9 8 7 8 13 19 21 19 18 21 24 24 25 27 25 24 25 24 24 27 30 32 34 35 36 37 39 41 41 42 42 43 42 43 46 46 46 45 45 45 44 44 43 42 41 40 39 39 38 38 37 37 36 35 35 34 33 31 29 27 27 27 27 26 26 26 24 22 21 21 21 19 19 18 18 17 16 16 16 14 12 12 13
10 13 13 12 12 11 7 7 8 7 8 8 9 10 8 7 8 8 9 14 19 21 19 17 20 23 24 26 27 26 26 24 25 27 30 32 34 36 37 38 38 40 42 44 46 47 47 46 47 47 46 46 46 46 46 45 44 43 42 41 41 40 40 40 39 38 37 36 36 35 34 33 31 29 28 27 28 28 27 27 26 24 22 22 22 21 21 20 20 19 18 17 18 17 14 13 14
9 12 14 11 11 11 8 7 6 7 8 7 9 12 11 8 7 9 13 14 16 20 22 19 19 22 23 25 29 30 28 25 25 29 30 32 34 36 37 37 38 39 41 44 46 48 49 48 48 47 48 48 47 47 47 46 46 44 44 43 43 42 41 41 40 39 38 38 38 37 36 35 34 32 30 28 28 29 29 28 27 27 25 24 24 23 22 22 21 20 20 18 19 19 16 14 16
14 10 13 12 10 11 9 7 8 9 8 7 9 11 10 9 8 8 14 17 16 17 20 20 21 21 22 25 29 32 29 26 25 26 27 30 33 35 36 37 38 40 40 41 43 45 46 48 48 47 47 47 47 48 47 47 47 46 45 45 44 43 43 42 42 41 40 40 40 39 38 37 35 34 33 31 30 30 30 30 29 28 27 26 25 25 24 23 22 21 22 20 19 21 19 17 18
17 12 12 12 9 9 10 8 7 8 7 7 9 10 8 9 10 10 11 14 16 15 15 17 18 20 22 25 26 28 28 25 23 22 25 30 34 36 38 38 37 38 38 38 39 41 43 45 47 47 46 46 47 48 48 48 48 47 47 46 45 45 44 44 43 43 42 42 41 40 39 38 37 35 34 34 33 33 32 32 31 30 29 29 28 27 26 25 24 23 23 22 21 22 20 17 17
16 13 12 12 10 8 9 9 8 7 7 6 7 8 7 6 8 9 9 12 14 14 14 13 14 18 23 23 23 26 26 24 23 25 29 33 34 35 35 35 34 34 35 36 38 40 41 42 45 47 46 46 47 48 48 48 49 49 49 48 47 46 46 45 45 44 44 43 42 41 40 38 37 36 35 35 35 35 34 33 32 31 30 30 30 29 28 27 26 24 24 24 23 22 21 18 17
16 13 12 13 12 10 10 10 10 9 8 6 5 6 2 4 3 4 7 10 12 13 14 13 13 18 20 22 23 25 27 26 27 30 30 30 30 31 32 31 31 32 34 36 37 39 40 41 43 45 45 46 47 48 48 48 49 50 50 49 49 48 47 47 46 46 45 45 44 42 41 39 38 37 37 36 36 35 35 34 33 33 31 30 31 31 30 29 29 28 26 25 25 25 25 21 18
Wind_Direction
193 163 136 124 157 189 187 202 237 222 234 292 249 232 145 126 59 57 76 41 77 81 86 89 76 73 81 95 98 84 58 60 79 88 115 134 142 138 139 145 147 145 145 145 144 143 142 143 143 141 136 138 138 135 136 136 136 134 131 127 125 124 122 117 112 107 104 101 99 98 97 97 96 95 90 88 88 89 89 88 86 83 82 81 81 79 76 76 76 77 80 84 88 87 84 83 78
180 171 159 146 179 202 202 214 257 285 228 288 211 207 70 107 114 112 109 117 118 104 100 92 79 77 91 102 101 88 61 70 92 99 116 134 138 137 142 145 147 145 145 145 145 146 145 144 144 139 137 141 140 137 138 138 137 133 130 126 125 123 120 117 113 109 104 100 99 97 98 98 98 97 93 91 91 93 93 90 88 84 82 80 80 77 73 68 69 71 78 84 84 85 82 82 81
172 173 173 174 192 221 278 248 258 265 215 79 136 115 79 105 110 123 133 134 126 112 105 95 78 62 77 86 80 83 80 90 104 109 121 136 138 141 145 144 147 148 147 147 147 148 147 145 143 140 140 143 141 139 139 139 137 134 131 127 125 122 120 117 114 111 105 101 98 97 98 99 98 97 95 95 95 96 95 92 89 85 82 80 79 76 73 69 69 70 73 79 79 81 82 84 83
177 185 178 189 204 233 256 240 254 255 179 98 73 82 90 79 86 106 119 118 121 118 108 94 86 77 75 80 84 87 93 104 112 117 127 139 140 144 144 143 147 150 150 149 149 148 148 145 143 142 143 146 142 141 142 140 138 135 131 127 125 122 120 117 115 113 108 102 99 100 101 100 98 96 96 97 97 94 90 89 87 84 81 78 78 74 73 73 70 70 70 73 76 77 80 85 85
180 198 195 204 205 227 238 238 240 244 32 78 83 79 83 85 92 101 107 115 125 119 107 98 99 100 75 67 83 95 105 112 118 121 128 137 140 143 144 143 143 149 152 152 151 148 147 146 144 145 144 147 145 144 144 140 139 135 131 129 126 123 121 119 118 115 111 106 104 104 102 101 99 99 99 98 98 93 88 87 86 82 81 78 75 74 73 73 71 70 69 71 75 78 79 82 84
184 207 214 222 248 279 263 250 229 235 55 67 90 92 87 89 97 105 110 115 118 114 110 103 101 104 82 69 73 94 118 120 124 126 129 136 140 145 145 143 144 146 148 152 152 148 148 147 147 147 146 148 147 147 145 141 140 135 133 132 129 125 123 122 120 117 114 111 108 104 101 100 101 103 100 96 94 92 91 88 86 82 79 77 76 77 76 75 74 71 71 72 72 74 78 81 81
199 218 212 223 259 254 249 245 228 336 76 92 96 97 95 95 101 109 116 119 118 117 106 96 97 100 90 83 78 90 118 122 128 130 133 138 141 143 142 142 146 144 144 148 148 149 150 149 148 148 149 151 150 150 146 142 141 137 136 134 131 127 125 123 118 114 114 115 112 106 102 101 101 100 96 93 91 89 89 85 83 80 78 79 80 81 81 82 81 77 73 71 71 72 75 79 81
214 235 231 238 253 215 262 263 166 89 86 90 80 90 95 102 109 112 119 124 127 124 107 104 104 95 84 91 93 101 114 120 127 131 135 139 141 142 141 143 145 144 144 144 145 151 152 150 148 149 151 153 154 152 147 145 143 140 138 135 132 129 125 121 114 111 114 119 118 111 107 105 100 96 95 94 93 92 88 86 83 79 80 81 84 84 84 86 84 80 76 74 73 73 73 75 79
222 237 259 282 267 256 267 260 112 95 89 88 86 93 97 105 111 112 117 118 128 125 116 116 106 98 99 99 104 111 113 119 127 132 137 140 143 143 143 146 146 145 145 145 149 154 154 153 150 151 153 153 156 154 150 148 147 144 141 137 133 129 123 118 115 113 117 123 122 117 113 107 100 95 96 97 98 97 91 87 83 81 85 88 89 88 86 87 86 82 79 80 78 76 76 75 76
228 231 255 276 275 284 240 187 96 100 96 93 97 99 99 108 112 108 108 113 130 127 117 112 106 115 117 107 108 116 119 127 131 134 140 142 144 144 144 146 146 147 148 149 152 156 158 157 152 151 153 154 157 156 154 153 152 149 143 139 135 131 124 120 119 120 125 126 126 122 115 105 98 96 97 98 96 95 93 91 89 89 93 96 94 92 90 88 87 84 81 81 81 80 78 78 78
235 234 244 266 290 288 257 106 105 112 105 103 97 97 99 107 108 101 100 110 127 129 123 115 112 120 115 104 106 118 128 134 136 139 143 144 145 145 145 145 145 146 149 153 154 157 161 160 156 155 155 155 158 158 158 158 156 152 147 143 139 134 128 125 124 127 131 126 126 124 118 105 97 97 95 96 94 90 91 92 96 97 100 103 101 97 93 89 88 86 84 82 81 80 79 80 79
241 238 233 273 282 271 279 97 113 110 115 118 104 102 103 108 105 98 101 112 121 128 131 124 125 128 118 111 114 126 136 138 141 143 144 145 146 146 146 150 153 148 147 155 158 160 162 161 160 161 160 158 160 161 162 163 160 155 150 147 143 138 133 131 127 129 135 128 125 126 124 111 101 96 92 95 93 90 88 90 96 100 105 107 107 105 100 95 90 86 84 82 82 81 81 80 77
238 253 243 270 271 261 264 98 106 114 120 106 105 114 110 103 97 94 100 109 118 128 130 122 127 130 115 115 126 137 141 143 145 145 146 146 147 147 148 155 156 148 147 157 162 163 163 162 164 166 167 164 164 165 165 166 164 160 156 153 149 143 140 136 128 130 140 134 129 132 130 117 106 92 89 95 96 94 90 90 92 100 109 112 114 112 106 97 89 86 81 77 77 77 77 79 78
240 264 272 276 277 268 251 118 120 128 106 96 107 118 119 102 92 92 100 104 98 113 114 117 127 123 115 123 137 147 147 147 148 147 148 147 149 149 149 151 148 144 147 154 158 163 163 162 165 168 169 168 168 167 168 169 168 166 163 160 158 152 149 145 134 133 148 148 141 142 135 117 105 90 85 95 101 100 93 91 93 102 112 119 125 120 109 98 87 81 76 72 69 68 69 71 74
248 269 282 282 296 296 288 99 116 122 101 104 112 117 117 99 102 103 100 103 88 101 111 124 138 134 142 152 152 154 152 151 150 149 149 149 150 150 151 152 148 148 150 152 154 159 160 160 166 170 169 168 169 169 170 172 173 171 169 168 166 163 160 157 148 141 161 166 156 157 143 115 103 89 78 91 106 104 98 95 99 109 117 128 137 128 114 100 87 79 75 71 64 61 64 66 69
250 273 289 267 265 321 280 282 103 115 105 104 107 121 116 99 111 101 90 104 104 116 124 132 140 131 153 158 151 152 152 151 151 150 150 151 151 151 153 154 153 154 155 155 154 157 159 161 168 171 168 168 168 172 175 175 176 176 175 175 174 174 172 170 164 151 170 178 173 173 149 117 103 89 78 98 116 112 102 98 106 117 127 140 146 137 120 101 90 84 75 66 61 61 65 67 64
249 269 275 267 83 92 276 329 87 101 109 113 116 129 118 110 109 92 99 116 117 131 129 128 120 104 142 146 146 149 151 152 152 152 152 153 154 155 157 158 157 157 159 160 157 158 158 164 172 171 169 169 168 175 180 178 179 180 180 182 182 184 185 183 176 160 174 180 181 175 155 139 126 117 111 118 129 126 107 96 100 119 138 146 148 141 121 101 84 80 74 65 64 64 66 70 68
240 255 252 261 63 264 276 37 66 92 106 115 128 139 129 125 117 109 131 122 121 134 125 125 110 96 119 133 142 147 152 155 155 156 156 157 159 159 161 163 163 160 161 163 162 162 161 166 170 169 171 170 169 178 180 180 182 182 184 188 189 193 194 192 188 181 184 180 182 177 164 158 148 149 164 148 128 119 108 79 65 105 151 148 144 134 116 98 77 74 73 67 67 63 65 70 68
230 249 256 234 98 244 263 41 51 56 95 120 137 153 148 135 130 137 157 128 129 140 132 132 118 110 122 134 143 147 153 158 159 161 160 162 164 164 165 165 168 164 162 165 166 166 165 168 168 169 174 170 170 177 179 182 185 183 187 192 195 200 200 201 201 198 197 187 188 182 168 168 165 171 190 153 103 123 106 70 60 64 142 143 137 122 101 90 85 86 67 59 62 63 59 58 59
229 240 261 112 168 239 244 57 58 56 54 120 131 150 150 144 140 155 163 135 140 145 141 145 133 129 135 141 146 149 155 161 163 165 164 166 167 167 168 166 170 168 165 166 167 169 170 171 169 171 175 172 172 176 177 182 186 185 189 193 198 204 205 206 206 206 201 191 199 187 170 193 193 196 210 172 129 135 110 72 65 69 113 137 130 121 101 86 89 86 52 41 47 59 47 41 52
226 230 259 16 241 245 172 132 87 69 12 46 101 146 158 156 148 161 166 147 152 154 151 152 145 144 147 149 151 153 157 163 167 168 167 170 170 169 171 169 171 171 168 166 167 171 173 173 171 173 177 175 175 176 176 183 186 184 187 193 196 201 204 205 207 211 203 196 205 187 172 198 193 210 210 181 166 141 151 142 105 99 116 124 115 137 112 93 104 79 40 37 42 54 49 28 54
232 234 263 295 284 284 123 135 66 74 330 32 122 160 151 154 157 164 172 164 139 146 155 152 151 152 157 156 155 158 160 165 169 172 172 173 174 172 172 171 171 172 171 170 171 173 174 175 174 175 179 178 178 177 175 184 187 182 186 192 192 195 200 200 204 209 205 201 201 183 187 197 184 202 203 187 175 192 229 196 124 135 126 117 153 221 121 103 152 85 49 53 48 39 47 16 62
234 224 242 251 249 275 286 154 208 232 295 314 223 27 135 158 168 171 180 169 101 115 148 150 152 155 160 158 158 162 164 168 170 174 176 176 177 176 174 174 174 174 174 175 175 176 176 177 177 177 181 181 182 180 178 187 188 181 187 192 190 192 197 199 203 207 207 205 199 181 189 199 189 196 198 195 174 205 250 248 144 153 119 111 203 278 112 96 39 80 62 70 79 50 310 330 42
235 233 219 219 218 238 247 239 237 241 266 281 297 307 193 182 178 171 183 181 128 121 140 144 150 155 161 161 163 167 167 170 172 174 177 178 180 179 177 176 176 176 176 177 177 178 178 178 179 179 184 186 185 183 182 187 187 184 188 193 191 192 196 197 200 203 208 210 204 186 183 197 197 192 197 199 184 211 238 201 195 132 113 121 176 261 51 53 16 58 79 123 97 93 321 333 40
226 241 236 224 221 232 240 236 236 239 249 260 251 244 222 205 201 176 177 183 157 143 144 144 149 156 165 166 167 169 169 172 173 175 177 179 181 180 182 180 179 179 178 179 178 180 181 181 180 181 187 189 188 187 185 185 188 186 189 193 191 195 196 194 199 201 205 208 207 198 187 189 199 195 194 193 200 218 214 207 233 134 129 163 167 150 77 52 320 5 58 358 31 60 17 348 29
219 234 246 244 234 232 234 232 230 235 240 245 236 233 228 208 213 202 177 180 166 156 155 151 154 161 167 169 171 170 170 173 175 177 178 179 180 182 184 183 182 183 181 179 179 181 182 183 182 183 189 191 190 189 187 187 189 187 191 194 192 199 196 191 200 199 202 204 208 211 196 186 193 196 200 193 200 215 201 216 244 102 105 280 50 56 65 55 316 343 46 35 359 34 46 344 349
222 233 241 243 246 238 231 231 229 233 234 237 238 232 228 204 202 209 177 176 170 162 163 158 160 165 167 170 172 173 172 175 177 178 179 179 180 183 184 184 185 185 184 181 180 182 182 184 184 185 189 192 191 190 188 189 191 189 194 197 194 198 195 193 198 198 203 200 208 219 206 198 190 182 204 196 195 210 202 218 234 121 96 166 1 12 11 290 337 329 10 61 304 29 36 341 344
226 236 240 238 243 243 238 236 231 233 231 228 235 237 232 207 206 214 175 173 174 167 165 165 168 167 168 171 172 175 176 176 178 180 181 181 181 183 184 184 186 186 185 184 182 182 182 184 186 186 189 194 192 189 191 192 192 192 195 198 195 197 197 197 198 199 202 196 212 221 211 210 200 192 206 199 193 200 203 227 219 183 159 143 252 249 218 216 283 321 341 359 1 34 26 345 356
233 238 244 242 241 240 233 230 227 228 229 222 226 235 230 211 211 211 173 169 172 172 169 169 173 170 170 171 172 176 178 177 180 183 184 182 182 184 185 186 185 186 187 186 185 183 183 184 185 187 190 195 191 187 192 193 193 194 196 197 198 200 199 199 201 202 201 201 217 220 209 213 209 208 213 203 198 194 205 229 230 200 172 167 230 250 268 334 323 355 6 20 20 12 13 349 356
230 235 241 246 241 237 226 222 221 221 223 218 217 229 226 207 200 195 171 166 172 176 176 176 175 174 174 172 174 178 178 180 181 184 185 182 183 184 185 186 185 186 186 187 187 185 185 185 186 188 190 195 192 187 193 194 193 195 196 197 200 202 199 200 202 203 203 205 218 219 211 215 212 214 217 209 204 199 210 221 233 250 214 210 235 269 311 333 333 1 357 36 46 8 13 353 343
221 228 229 237 241 237 220 212 213 215 213 210 214 226 228 203 182 183 176 169 178 182 179 184 178 175 178 176 180 182 180 182 182 183 185 182 183 184 184 185 185 186 185 186 187 187 186 186 187 188 190 196 193 190 194 194 194 196 195 196 201 203 200 201 203 205 207 206 215 219 214 217 215 214 216 212 206 203 215 218 223 237 235 243 264 258 217 246 315 344 354 12 43 21 1 353 349
214 223 223 225 234 244 225 207 205 211 203 200 212 217 227 218 169 173 184 176 184 190 184 187 182 177 181 180 185 187 182 183 183 183 185 184 183 183 184 185 185 186 185 185 187 187 188 188 189 189 191 195 194 193 194 194 195 197 196 196 202 205 201 201 202 203 210 207 209 218 218 217 216 216 215 214 210 204 215 222 221 235 237 241 263 275 255 240 288 305 7 13 19 15 3 3 1
209 219 227 220 217 234 232 201 197 210 203 192 208 219 215 224 170 169 181 182 188 195 189 188 185 182 179 177 187 193 186 182 183 185 185 186 184 183 184 184 185 185 186 185 186 187 188 190 190 190 192 193 193 194 194 196 197 197 197 197 202 205 202 202 203 201 207 209 205 214 221 217 213 217 217 214 213 205 212 227 231 245 242 217 236 251 266 290 322 334 343 6 5 19 21 11 24
205 210 226 228 220 222 220 192 188 207 213 196 201 219 217 205 182 174 177 185 194 197 195 189 187 182 170 173 187 197 195 186 184 186 185 185 185 184 183 184 185 185 187 186 186 188 187 189 190 190 193 193 191 192 195 199 200 200 199 200 203 205 202 202 206 203 204 209 204 209 221 218 213 218 219 216 215 209 211 220 225 246 253 245 251 241 196 232 308 299 300 352 22 49 82 40 44
208 206 215 229 226 220 212 199 187 198 212 207 196 208 216 203 191 183 180 190 198 198 200 192 189 178 163 173 189 196 203 197 188 185 184 184 183 184 183 184 185 184 187 186 186 188 187 189 191 189 191 192 191 190 192 196 199 200 200 203 205 206 203 200 205 206 205 207 204 210 218 217 215 217 219 218 215 213 214 217 224 237 250 260 272 273 225 217 260 262 246 4 3 55 112 79 58
217 212 213 221 227 227 217 206 191 193 207 212 207 210 210 207 204 192 185 196 204 202 201 194 190 180 166 177 192 194 201 204 197 187 183 184 182 183 183 183 184 185 186 186 186 188 188 189 190 189 189 190 191 189 190 193 195 198 200 202 205 207 207 201 202 206 207 207 205 214 219 214 216 218 217 219 215 214 214 218 232 240 243 250 263 265 237 207 272 281 260 224 7 49 82 82 75
231 223 220 219 224 228 219 210 195 190 208 214 214 219 214 209 212 209 200 200 205 205 202 196 193 184 174 186 196 193 195 203 203 193 185 184 182 182 181 182 183 184 186 186 186 188 188 189 190 189 188 189 190 189 190 192 194 197 199 201 201 205 208 204 203 203 205 208 205 214 219 214 217 219 217 219 217 216 216 214 228 238 238 248 257 247 227 217 240 247 223 352 43 80 94 93 86
237 235 233 225 222 224 213 208 199 187 204 219 216 222 221 213 212 211 203 198 207 210 204 200 197 187 181 191 198 190 189 200 204 198 190 184 182 182 181 181 182 183 185 186 187 189 189 190 192 191 189 189 191 191 190 191 194 198 199 199 199 203 206 207 207 204 204 207 208 214 219 216 218 221 220 220 218 218 220 218 224 234 237 246 254 238 222 229 234 214 192 117 101 151 135 147 131
233 232 236 234 221 223 217 208 207 196 196 226 225 225 227 221 218 213 199 194 207 212 208 203 198 197 191 188 192 187 188 200 203 197 192 186 183 182 181 182 183 183 185 187 188 189 190 190 192 193 191 190 192 193 193 192 194 196 198 198 197 202 206 207 208 207 207 206 210 219 221 218 220 222 220 220 220 219 221 223 228 236 237 240 250 247 231 234 235 203 187 179 175 174 150 158 146
231 225 225 233 220 221 221 208 211 205 196 231 235 230 231 227 222 219 213 209 208 206 210 210 199 204 202 184 184 190 191 200 203 196 191 187 183 183 183 183 183 183 184 187 188 188 190 192 192 194 194 193 193 196 198 196 194 193 196 198 198 200 206 209 208 208 211 207 210 223 225 220 223 224 221 220 220 221 224 224 227 235 237 234 243 250 240 238 243 211 188 187 181 171 156 148 146
226 227 224 230 224 223 228 217 214 207 201 222 236 237 232 229 227 222 220 222 216 202 204 213 207 207 204 184 183 194 197 198 199 196 191 187 185 185 185 184 183 184 185 187 189 190 193 195 194 194 195 196 195 198 201 198 196 195 196 198 199 199 203 209 209 207 210 207 208 221 225 220 223 226 223 221 220 223 227 226 225 232 240 238 237 241 228 224 233 210 189 193 191 174 166 168 169
220 225 226 232 234 232 236 234 226 217 209 210 222 239 234 225 229 227 218 218 217 202 196 208 212 209 204 191 186 192 197 197 195 197 192 185 185 185 185 186 185 186 187 189 191 193 197 199 199 197 198 199 197 199 203 201 201 203 202 201 202 203 201 205 209 205 207 212 209 216 225 223 224 226 226 224 221 225 230 229 230 233 240 247 244 236 216 211 220 209 191 196 203 186 171 174 176
222 216 218 227 238 240 239 238 232 226 229 215 212 229 239 229 228 226 224 221 217 208 198 204 209 207 206 202 194 188 191 195 195 200 196 185 183 184 186 188 188 189 189 189 191 194 198 202 204 204 203 202 200 201 204 204 206 208 209 210 211 210 206 205 212 209 206 215 213 210 221 227 227 225 225 226 221 223 229 229 233 234 237 247 251 239 220 211 218 212 194 197 212 203 184 182 182
229 212 211 217 228 235 236 238 235 230 242 238 224 226 236 238 230 225 224 224 222 213 200 203 207 204 206 207 200 190 190 192 192 199 199 188 184 185 187 190 190 191 189 188 190 192 198 205 209 211 209 209 208 207 206 206 208 210 211 215 216 216 213 209 217 218 208 211 214 209 214 225 230 226 222 226 223 220 226 229 232 235 235 242 248 242 224 211 218 216 201 202 215 219 209 188 178
228 219 217 215 218 226 229 235 239 236 240 242 234 232 236 237 232 230 228 226 224 212 197 203 208 201 204 211 204 194 191 190 190 199 200 190 187 188 189 190 190 190 189 190 191 193 200 207 212 215 215 215 216 213 211 209 210 212 212 216 219 219 215 211 217 222 217 211 211 212 209 216 231 231 222 226 228 222 224 228 230 234 235 239 243 241 226 214 218 215 207 210 217 225 225 195 178
223 222 220 216 218 222 224 228 234 235 239 239 231 231 239 243 230 227 232 228 219 208 198 204 207 198 198 208 211 201 191 188 193 200 199 191 190 191 189 189 188 188 190 191 190 191 198 206 211 215 216 217 218 218 217 216 214 212 212 218 222 222 218 213 211 217 222 218 214 215 212 212 225 232 225 225 229 227 226 227 228 231 233 236 238 234 225 222 220 213 209 214 215 222 228 207 191
212 219 212 204 217 222 222 225 228 234 237 235 231 230 237 244 231 220 226 224 212 205 206 204 201 199 193 196 214 211 194 190 193 197 197 193 193 191 189 188 187 188 189 190 189 188 195 207 213 215 217 218 218 220 221 221 221 218 218 221 224 225 223 219 213 211 219 224 222 222 222 220 223 229 228 225 227 229 227 228 228 228 230 234 234 229 224 222 218 211 212 216 216 221 226 213 205
206 212 200 195 207 210 219 216 217 233 235 228 227 229 237 241 231 224 225 222 215 208 204 201 197 200 195 191 209 213 197 191 194 194 195 194 192 191 190 189 188 187 187 188 190 189 194 207 215 216 217 218 218 220 221 223 224 223 224 225 224 225 226 225 222 217 218 226 228 227 228 229 228 228 229 228 229 230 228 229 229 228 228 230 231 229 224 218 214 211 213 216 217 222 226 217 211
202 205 198 198 198 191 207 207 207 228 234 228 223 220 232 242 234 233 234 224 220 214 202 198 201 205 196 188 203 214 202 193 194 193 194 193 192 191 190 189 187 186 187 188 190 189 193 205 214 216 217 218 218 220 222 223 224 224 224 224 224 225 226 227 228 225 223 227 232 230 230 231 231 229 228 228 229 229 229 230 229 228 229 229 230 228 224 218 212 210 212 215 217 222 228 225 215
197 201 196 197 197 191 202 206 211 226 226 224 223 216 227 241 232 226 232 232 226 217 201 199 209 210 194 183 197 214 209 198 194 193 193 193 193 192 191 189 188 187 188 190 191 190 193 204 214 217 218 220 219 220 222 223 224 224 223 223 223 224 225 226 228 228 226 228 233 235 234 233 233 233 232 231 229 225 227 233 232 229 230 230 229 228 226 223 216 212 213 216 219 221 225 223 215
198 202 202 204 208 204 203 206 212 223 222 214 215 219 228 235 232 221 223 225 226 226 209 200 210 210 186 175 190 210 212 201 194 194 193 193 194 193 192 190 189 189 189 190 191 190 194 204 213 217 218 219 220 220 222 223 223 223 223 222 222 223 225 225 227 229 228 229 233 236 237 235 232 233 235 235 232 227 228 236 237 231 230 231 229 228 227 226 222 218 216 218 220 221 220 215 211
194 199 208 211 212 218 222 220 220 223 230 213 204 218 231 230 240 234 222 217 214 224 219 200 204 205 184 172 181 205 214 202 194 198 195 193 194 192 192 192 191 191 190 190 192 192 196 205 213 217 218 218 219 220 221 223 223 223 223 222 222 223 224 226 227 228 229 230 232 235 237 236 232 231 235 237 236 233 232 237 239 234 231 232 230 228 228 229 227 223 220 220 222 221 215 208 207
184 198 211 209 209 226 237 227 227 231 237 225 202 210 219 222 225 212 217 221 208 209 218 207 198 201 191 176 177 198 212 200 195 203 199 192 193 191 193 194 192 192 191 191 195 199 202 207 212 216 218 219 219 220 221 222 223 223 223 223 223 223 224 225 227 228 229 231 233 235 237 238 235 232 233 236 238 238 236 237 239 237 232 231 231 229 228 229 230 228 224 222 224 225 218 209 207
193 196 204 203 209 225 239 232 221 220 229 229 216 212 207 210 217 198 201 217 212 203 208 209 198 198 198 186 181 193 204 199 197 205 201 192 192 192 193 194 194 195 194 193 196 201 205 209 214 216 217 218 219 220 220 221 222 223 223 223 223 223 224 225 227 229 230 231 233 235 236 237 237 236 233 234 236 239 239 237 237 238 235 231 231 231 229 228 229 229 226 223 224 225 220 214 212
219 206 193 197 208 209 213 228 222 216 222 222 224 225 213 206 212 207 199 203 213 206 201 207 205 201 203 197 190 191 195 199 200 204 203 194 192 193 193 195 196 196 196 195 195 197 203 209 213 216 218 219 219 220 220 221 222 223 223 224 224 224 225 226 227 229 231 232 233 234 236 236 237 237 236 234 235 237 239 238 237 237 238 235 233 232 231 228 226 225 224 222 223 225 222 217 219
220 220 199 200 216 208 200 215 226 224 225 218 220 223 224 220 215 214 197 189 205 207 196 206 209 199 199 201 194 185 187 198 200 202 209 202 194 194 195 196 196 196 195 194 194 195 199 206 211 215 217 219 219 220 221 222 222 223 224 224 225 225 226 227 228 229 231 233 234 234 236 237 237 238 237 237 236 237 238 239 238 237 237 237 236 234 233 231 227 223 222 221 221 227 225 217 218
205 213 203 196 205 209 206 211 218 227 232 226 223 222 218 212 204 207 195 179 193 203 197 204 213 201 193 195 193 181 181 197 201 202 210 206 196 195 197 195 195 195 194 194 195 197 197 201 208 213 214 216 218 220 222 223 222 223 224 224 225 226 226 227 229 230 231 233 234 234 235 236 236 237 237 237 237 237 237 238 240 238 236 235 236 236 234 233 231 227 224 221 220 225 228 221 215
196 205 205 196 195 201 206 209 207 219 236 234 239 241 191 108 122 196 202 185 184 195 198 195 206 211 196 189 194 186 180 191 200 201 206 206 198 194 194 193 193 194 195 195 196 197 197 199 204 208 210 213 216 218 222 223 223 224 225 225 226 227 227 228 229 230 231 233 234 234 234 235 235 235 235 236 238 238 238 238 238 239 237 234 235 237 236 234 235 234 229 223 220 223 230 229 219